Location: *
(58.7167°N, 26.1833°E)
Time: 00:02:56
(UTC+00:00)

ALOS 2 - Pass Details

Date: 25 August 2019
Orbit: 630 x 632 km, 97.9° (Epoch: 18 September)

Event Time Altitude Azimuth Distance (km) Brightness Sun altitude
Exits shadow 22:50:02 19° 257° (WSW) 1,515 4.3 -20.4°
Maximum altitude 22:50:49 20° 272° (W) 1,479 4.4 -20.4°
Drops below altitude 10° 22:54:04 10° 319° (NW) 2,027 5.7 -20.3°
Sets 22:56:49 0° 337° (NNW) 2,940 7.0 -20.2°
